period_start,C,m1,H,J0,J1,J2,J3,J4,J5,JA,JB,JC,JD,JJ,JK,JN,#
2014-01-22 00:00:14,0.44,9.84,0.33,14.44,20.40,23.94,6.27,32.50,1020.71,2061.93,1299.19,1598.49,1739.39,348.55,333.90,24.82,0000 0000 0000 0000 000000
2014-01-22 00:01:15,0.67,9.84,0.00,14.44,20.40,23.93,6.36,32.46,1020.66,2061.93,1299.05,1598.19,1739.14,350.90,335.34,24.83,0000 0000 0000 0000 000000
2014-01-22 00:02:15,0.37,9.84,0.00,14.44,20.40,23.98,6.20,32.29,1020.66,2061.95,1298.78,1598.06,1739.04,350.19,335.24,24.83,0000 0000 0000 0000 000000
2014-01-22 00:03:15,0.32,9.84,0.00,14.44,20.40,23.98,6.23,32.33,1020.71,2061.93,1298.34,1597.97,1738.88,349.87,334.84,24.84,0000 0000 0000 0000 000000
2014-01-22 00:04:15,0.41,9.85,0.00,14.44,20.40,23.97,6.21,32.46,1020.71,2061.95,1298.12,1597.67,1738.40,349.07,334.07,24.85,0000 0000 0000 0000 000000
2014-01-22 00:05:15,0.53,9.85,0.00,14.43,20.40,23.94,6.30,32.42,1020.65,2061.95,1298.00,1597.25,1738.14,349.94,334.92,24.85,0000 0000 0000 0000 000000
2014-01-22 00:06:16,0.45,9.85,0.00,14.42,20.40,23.97,6.23,32.58,1020.59,2061.94,1297.59,1597.09,1738.02,350.14,334.72,24.86,0000 0000 0000 0000 000000
2014-01-22 00:07:16,0.40,9.86,0.00,14.41,20.40,23.98,6.34,32.58,1020.61,2061.92,1297.22,1597.00,1737.88,350.22,335.17,24.86,0000 0000 0000 0000 000000
2014-01-22 00:08:16,0.35,9.86,0.00,14.42,20.41,23.97,6.30,32.67,1020.61,2061.90,1297.08,1596.79,1737.43,349.86,334.81,24.87,0000 0000 0000 0000 000000
2014-01-22 00:09:17,0.35,9.86,0.00,14.42,20.41,23.96,6.27,32.50,1020.60,2061.94,1296.95,1596.36,1737.15,350.08,335.01,24.87,0000 0000 0000 0000 000000
2014-01-22 00:10:17,0.51,9.86,0.00,14.42,20.41,23.97,6.34,32.54,1020.56,2061.89,1296.47,1596.14,1737.05,350.15,335.07,24.88,0000 0000 0000 0000 000000
2014-01-22 00:11:17,0.43,9.86,0.00,14.42,20.41,23.93,6.35,32.58,1020.53,2061.87,1296.17,1596.03,1736.80,350.30,335.20,24.89,0000 0000 0000 0000 000000
2014-01-22 00:12:17,0.32,9.87,0.00,14.42,20.41,23.94,6.26,32.50,1020.52,2061.88,1296.05,1595.82,1736.32,350.47,335.37,24.89,0000 0000 0000 0000 000000
2014-01-22 00:13:18,0.39,9.87,0.00,14.43,20.41,23.98,6.13,32.54,1020.52,2061.88,1295.66,1595.38,1736.12,349.91,334.82,24.90,0000 0000 0000 0000 000000
2014-01-22 00:14:18,0.65,9.87,0.00,14.44,20.41,23.96,6.36,32.63,1020.52,2061.85,1295.25,1595.13,1735.96,350.14,335.02,24.90,0000 0000 0000 0000 000000
2014-01-22 00:15:18,0.48,9.88,0.00,14.42,20.42,23.96,6.19,32.58,1020.52,2061.81,1295.08,1595.03,1735.50,350.00,334.92,24.91,0000 0000 0000 0000 000000
2014-01-22 00:16:18,0.32,9.88,0.00,14.43,20.42,24.00,6.21,32.46,1020.52,2061.82,1294.68,1594.69,1735.18,349.86,334.49,24.92,0000 0000 0000 0000 000000
2014-01-22 00:17:18,0.57,9.88,0.00,14.44,20.42,24.01,6.31,32.50,1020.52,2061.86,1294.25,1594.28,1735.04,350.50,335.38,24.92,0000 0000 0000 0000 000000
2014-01-22 00:18:19,0.63,9.88,0.00,14.44,20.42,23.98,6.24,32.58,1020.52,2061.81,1294.06,1594.10,1734.62,349.72,334.37,24.93,0000 0000 0000 0000 000000
2014-01-22 00:19:19,0.42,9.89,0.00,14.44,20.42,23.97,6.29,32.83,1020.52,2061.85,1293.62,1593.98,1734.23,350.62,335.49,24.93,0000 0000 0000 0000 000000
2014-01-22 00:20:19,0.57,9.89,0.00,14.44,20.42,23.96,6.36,32.75,1020.52,2061.86,1293.23,1593.56,1734.06,350.74,335.67,24.94,0000 0000 0000 0000 000000
2014-01-22 00:21:20,0.59,9.89,0.00,14.44,20.42,23.93,6.22,32.63,1020.51,2061.89,1293.04,1593.20,1733.83,349.99,334.49,24.94,0000 0000 0000 0000 000000
2014-01-22 00:22:20,0.49,9.90,0.00,14.44,20.42,23.93,6.13,32.54,1020.51,2061.84,1292.58,1593.07,1733.35,349.74,334.18,24.95,0000 0000 0000 0000 000000
2014-01-22 00:23:20,0.53,9.90,0.00,14.44,20.42,23.97,6.27,32.71,1020.51,2061.86,1292.21,1592.81,1733.13,350.79,335.64,24.96,0000 0000 0000 0000 000000
2014-01-22 00:24:21,0.49,9.90,0.00,14.44,20.42,23.96,6.18,32.50,1020.51,2061.81,1292.06,1592.32,1732.96,350.20,335.07,24.96,0000 0000 0000 0000 000000
2014-01-22 00:25:21,0.42,9.90,0.00,14.44,20.42,23.95,6.12,32.54,1020.51,2061.81,1291.67,1592.13,1732.54,349.45,334.36,24.97,0000 0000 0000 0000 000000
2014-01-22 00:26:21,0.53,9.91,0.00,14.44,20.42,23.96,6.30,32.42,1020.49,2061.82,1291.26,1592.02,1732.23,349.53,334.30,24.97,0000 0000 0000 0000 000000
2014-01-22 00:27:21,0.46,9.91,0.00,14.44,20.42,23.96,6.29,32.58,1020.48,2061.73,1291.07,1591.77,1732.05,349.73,334.38,24.98,0000 0000 0000 0000 000000
2014-01-22 00:28:22,0.30,9.91,0.00,14.44,20.42,23.95,6.28,32.63,1020.46,2061.82,1290.78,1591.32,1731.75,349.71,334.61,24.99,0000 0000 0000 0000 000000
2014-01-22 00:29:22,0.68,9.92,0.00,14.44,20.42,23.95,6.02,32.63,1020.44,2061.86,1290.32,1591.11,1731.32,349.19,334.09,24.99,0000 0000 0000 0000 000000
2014-01-22 00:30:22,0.66,9.92,0.00,14.44,20.42,23.97,6.36,32.79,1020.43,2061.88,1290.11,1591.02,1731.11,350.12,334.68,25.00,0000 0000 0000 0000 000000
2014-01-22 00:31:23,0.31,9.92,0.00,14.44,20.42,23.95,6.22,32.75,1020.40,2061.84,1289.85,1590.63,1730.97,350.22,335.18,25.00,0000 0000 0000 0000 000000
2014-01-22 00:32:23,0.46,9.92,0.00,14.46,20.42,23.92,6.24,32.71,1020.41,2061.81,1289.36,1590.24,1730.59,350.05,335.22,25.01,0000 0000 0000 0000 000000
2014-01-22 00:33:23,0.59,9.93,0.00,14.46,20.42,23.96,6.31,32.58,1020.47,2061.77,1289.13,1590.08,1730.24,350.57,335.24,25.02,0000 0000 0000 0000 000000
2014-01-22 00:34:24,0.37,9.93,0.00,14.46,20.42,23.95,6.27,32.79,1020.43,2061.70,1289.00,1590.02,1730.08,350.95,335.75,25.02,0000 0000 0000 0000 000000
2014-01-22 00:35:24,0.16,9.93,0.00,14.46,20.42,23.93,6.33,32.71,1020.43,2061.74,1288.64,1589.85,1729.98,350.09,334.93,25.03,0000 0000 0000 0000 000000
2014-01-22 00:36:24,0.42,9.93,0.00,14.45,20.42,23.95,6.29,32.54,1020.46,2061.80,1288.26,1589.42,1729.55,350.04,335.05,25.03,0000 0000 0000 0000 000000
2014-01-22 00:37:24,0.76,9.94,0.00,14.44,20.42,23.98,6.12,32.50,1020.39,2061.83,1288.09,1589.16,1729.20,349.58,334.70,25.04,0000 0000 0000 0000 000000
2014-01-22 00:38:25,0.42,9.94,0.00,14.44,20.42,23.99,6.34,32.63,1020.37,2061.85,1287.96,1589.05,1729.07,350.38,335.20,25.04,0000 0000 0000 0000 000000
2014-01-22 00:39:25,0.26,9.94,0.00,14.44,20.42,23.96,6.32,32.46,1020.34,2061.85,1287.53,1588.96,1728.97,350.66,335.46,25.05,0000 0000 0000 0000 000000
2014-01-22 00:40:25,0.44,9.94,0.00,14.44,20.42,23.98,6.20,32.42,1020.34,2061.88,1287.21,1588.56,1728.56,349.90,334.73,25.06,0000 0000 0000 0000 000000
2014-01-22 00:41:25,0.62,9.95,0.00,14.46,20.42,23.99,6.33,32.50,1020.32,2061.93,1287.07,1588.21,1728.21,349.19,334.03,25.06,0000 0000 0000 0000 000000
2014-01-22 00:42:26,0.48,9.95,0.00,14.45,20.42,23.99,6.33,32.54,1020.27,2061.96,1286.77,1588.07,1728.07,350.07,334.86,25.07,0000 0000 0000 0000 000000
2014-01-22 00:43:26,0.35,9.95,0.00,14.47,20.42,23.97,6.27,32.38,1020.24,2061.94,1286.31,1588.01,1728.02,349.97,334.98,25.07,0000 0000 0000 0000 000000
2014-01-22 00:44:26,0.40,9.96,0.00,14.46,20.42,23.97,6.19,32.46,1020.30,2061.88,1286.10,1587.69,1727.70,349.50,334.57,25.08,0000 0000 0000 0000 000000
2014-01-22 00:45:27,0.38,9.96,0.00,14.47,20.42,24.00,6.23,32.75,1020.39,2061.79,1285.94,1587.27,1727.28,349.92,334.74,25.09,0000 0000 0000 0000 000000
2014-01-22 00:46:27,0.44,9.96,0.00,14.47,20.42,24.00,6.21,32.79,1020.39,2061.69,1285.50,1587.10,1727.10,349.50,334.34,25.09,0000 0000 0000 0000 000000
2014-01-22 00:47:27,0.35,9.96,0.00,14.47,20.42,24.00,6.33,32.96,1020.42,2061.70,1285.18,1587.02,1727.01,350.76,335.55,25.10,0000 0000 0000 0000 000000
2014-01-22 00:48:27,0.30,9.97,0.00,14.47,20.42,23.99,6.21,32.63,1020.41,2061.72,1285.04,1586.79,1726.97,349.72,334.08,25.10,0000 0000 0000 0000 000000
2014-01-22 00:49:28,0.29,9.97,0.00,14.46,20.42,23.98,6.08,32.58,1020.38,2061.79,1284.76,1586.44,1726.78,349.33,334.19,25.11,0000 0000 0000 0000 000000
2014-01-22 00:50:28,0.56,9.97,0.00,14.44,20.42,23.96,6.21,32.42,1020.34,2061.84,1284.32,1586.17,1726.36,349.83,334.66,25.11,0000 0000 0000 0000 000000
2014-01-22 00:51:28,0.69,9.97,0.00,14.44,20.42,23.94,6.39,32.46,1020.36,2061.83,1284.12,1586.06,1726.14,350.21,335.18,25.12,0000 0000 0000 0000 000000
2014-01-22 00:52:29,0.32,9.98,0.00,14.46,20.42,23.98,6.23,32.46,1020.34,2061.79,1284.01,1586.01,1726.03,349.54,334.52,25.13,0000 0000 0000 0000 000000
2014-01-22 00:53:29,0.12,9.98,0.00,14.44,20.42,23.99,6.30,32.46,1020.33,2061.73,1283.67,1585.76,1725.91,350.31,335.19,25.13,0000 0000 0000 0000 000000
2014-01-22 00:54:29,0.51,9.98,0.00,14.44,20.42,23.99,6.32,32.75,1020.27,2061.86,1283.27,1585.34,1725.48,350.40,335.40,25.14,0000 0000 0000 0000 000000
2014-01-22 00:55:30,0.72,9.99,0.00,14.46,20.42,23.97,6.28,32.54,1020.35,2061.88,1283.09,1585.13,1725.18,350.03,334.11,25.14,0000 0000 0000 0000 000000
2014-01-22 00:56:30,0.33,9.99,0.00,14.44,20.42,23.99,6.23,32.67,1020.36,2061.80,1283.00,1585.03,1725.06,349.60,334.44,25.15,0000 0000 0000 0000 000000
2014-01-22 00:57:30,0.16,9.99,0.00,14.45,20.42,23.99,6.17,32.88,1020.31,2061.82,1282.60,1584.98,1724.93,349.82,334.35,25.16,0000 0000 0000 0000 000000
2014-01-22 00:58:30,0.36,9.99,0.00,14.45,20.42,24.00,6.24,33.29,1020.32,2061.78,1282.24,1584.67,1724.57,349.33,334.50,25.16,0000 0000 0000 0000 000000
2014-01-22 00:59:31,0.54,9.99,0.00,14.44,20.42,23.99,6.33,33.29,1020.39,2061.78,1282.08,1584.27,1724.23,350.46,335.51,25.17,0000 0000 0000 0000 000000
2014-01-22 01:00:31,0.45,9.99,0.00,14.44,20.42,23.98,6.41,33.17,1020.41,2061.76,1282.02,1584.10,1724.09,350.50,334.84,25.17,0000 0000 0000 0000 000000
2014-01-22 01:01:31,0.25,10.00,0.00,14.45,20.42,23.97,6.38,33.17,1020.48,2061.75,1281.64,1584.03,1724.03,350.47,335.20,25.18,0000 0000 0000 0000 000000
2014-01-22 01:02:32,0.29,10.00,0.00,14.45,20.42,23.98,6.27,33.25,1020.48,2061.80,1281.25,1583.99,1723.88,350.43,335.27,25.19,0000 0000 0000 0000 000000
2014-01-22 01:03:32,0.42,10.00,0.00,14.45,20.42,23.98,6.35,32.96,1020.50,2061.87,1281.08,1583.64,1723.46,350.13,334.99,25.19,0000 0000 0000 0000 000000
2014-01-22 01:04:32,0.52,10.00,0.00,14.46,20.42,24.00,6.37,32.83,1020.48,2061.85,1280.96,1583.24,1723.17,350.67,335.36,25.20,0000 0000 0000 0000 000000
2014-01-22 01:05:32,0.46,10.01,0.00,14.45,20.42,23.99,6.33,33.00,1020.45,2061.86,1280.59,1583.08,1723.05,350.76,335.75,25.20,0000 0000 0000 0000 000000
2014-01-22 01:06:33,0.38,10.01,0.00,14.45,20.42,24.00,6.42,32.75,1020.32,2061.88,1280.23,1583.01,1722.88,350.69,335.47,25.21,0000 0000 0000 0000 000000
2014-01-22 01:07:33,0.41,10.01,0.00,14.47,20.42,23.99,6.19,32.58,1020.32,2061.91,1280.08,1582.81,1722.39,350.03,334.95,25.21,0000 0000 0000 0000 000000
2014-01-22 01:08:33,0.49,10.01,0.00,14.46,20.42,24.00,6.36,32.67,1020.24,2061.92,1279.98,1582.38,1722.15,350.09,334.94,25.22,0000 0000 0000 0000 000000
2014-01-22 01:09:34,0.43,10.02,0.00,14.46,20.42,23.99,6.22,32.63,1020.22,2061.92,1279.67,1582.14,1722.04,349.76,334.31,25.23,0000 0000 0000 0000 000000
2014-01-22 01:10:34,0.40,10.02,0.00,14.47,20.42,24.00,6.41,32.71,1020.19,2061.92,1279.25,1582.04,1721.70,350.33,335.06,25.23,0000 0000 0000 0000 000000
2014-01-22 01:11:34,0.44,10.02,0.00,14.45,20.42,24.00,6.19,32.67,1020.34,2061.91,1279.09,1581.95,1721.29,348.98,334.05,25.24,0000 0000 0000 0000 000000
2014-01-22 01:12:34,0.33,10.02,0.00,14.44,20.42,23.97,6.21,32.63,1020.37,2061.92,1279.02,1581.59,1721.10,349.70,334.11,25.24,0000 0000 0000 0000 000000
2014-01-22 01:13:35,0.36,10.03,0.00,14.46,20.42,23.99,6.44,32.79,1020.35,2061.89,1278.69,1581.22,1721.01,351.15,335.54,25.25,0000 0000 0000 0000 000000
2014-01-22 01:14:35,0.48,10.03,0.00,14.47,20.42,24.01,6.29,32.75,1020.25,2061.87,1278.26,1581.08,1720.73,350.24,335.00,25.26,0000 0000 0000 0000 000000
2014-01-22 01:15:35,0.45,10.03,0.00,14.46,20.42,23.99,6.16,32.75,1020.30,2061.88,1278.08,1581.02,1720.29,349.29,334.36,25.26,0000 0000 0000 0000 000000
2014-01-22 01:16:36,0.32,10.03,0.00,14.47,20.42,23.98,6.21,32.58,1020.27,2061.84,1277.97,1580.81,1720.10,349.94,334.66,25.27,0000 0000 0000 0000 000000
2014-01-22 01:17:36,0.31,10.03,0.00,14.47,20.42,23.95,6.44,32.75,1020.21,2061.78,1277.54,1580.33,1720.02,350.69,335.42,25.27,0000 0000 0000 0000 000000
2014-01-22 01:18:36,0.49,10.04,0.00,14.47,20.42,23.97,6.29,32.67,1020.17,2061.79,1277.21,1580.12,1719.93,350.15,334.89,25.28,0000 0000 0000 0000 000000
2014-01-22 01:19:37,0.44,10.04,0.00,14.46,20.42,23.95,6.29,32.63,1020.10,2061.83,1277.08,1580.04,1719.54,350.10,334.90,25.28,0000 0000 0000 0000 000000
2014-01-22 01:20:37,0.31,10.04,0.00,14.45,20.42,24.00,6.29,32.58,1020.10,2061.85,1276.94,1579.97,1719.20,350.11,334.84,25.29,0000 0000 0000 0000 000000
2014-01-22 01:21:37,0.37,10.05,0.00,14.45,20.42,24.00,6.33,32.46,1020.05,2061.82,1276.43,1579.58,1719.07,350.24,334.96,25.30,0000 0000 0000 0000 000000
2014-01-22 01:22:37,0.54,10.05,0.00,14.46,20.42,24.00,6.26,32.67,1020.07,2061.79,1276.15,1579.22,1718.98,350.52,335.21,25.30,0000 0000 0000 0000 000000
2014-01-22 01:23:38,0.48,10.05,0.00,14.46,20.42,24.01,6.29,32.58,1020.07,2061.72,1276.04,1579.08,1718.57,350.07,334.78,25.31,0000 0000 0000 0000 000000
2014-01-22 01:24:38,0.22,10.05,0.00,14.46,20.42,24.03,6.26,32.58,1020.07,2061.65,1275.89,1579.02,1718.21,350.02,334.73,25.31,0000 0000 0000 0000 000000
2014-01-22 01:25:38,0.18,10.05,0.00,14.47,20.42,24.04,6.14,32.42,1020.05,2061.59,1275.43,1578.84,1718.06,349.55,334.28,25.32,0000 0000 0000 0000 000000
2014-01-22 01:26:38,0.46,10.06,0.00,14.47,20.42,24.00,6.27,32.38,1020.06,2061.70,1275.16,1578.44,1717.96,349.32,334.06,25.33,0000 0000 0000 0000 000000
2014-01-22 01:27:39,0.56,10.06,0.00,14.47,20.42,23.97,6.26,32.33,1020.06,2061.68,1275.04,1578.16,1717.61,349.63,334.35,25.33,0000 0000 0000 0000 000000
2014-01-22 01:28:39,0.36,10.06,0.00,14.47,20.42,23.97,6.23,32.46,1020.05,2061.70,1274.80,1578.06,1717.24,350.04,334.82,25.34,0000 0000 0000 0000 000000
2014-01-22 01:29:39,0.42,10.07,0.00,14.47,20.42,23.97,6.25,32.38,1020.04,2061.71,1274.33,1578.02,1717.09,350.20,334.63,25.34,0000 0000 0000 0000 000000
2014-01-22 01:30:39,0.42,10.07,0.00,14.47,20.42,24.03,6.15,32.25,1020.05,2061.75,1274.12,1577.74,1717.01,349.19,333.78,25.35,0000 0000 0000 0000 000000
2014-01-22 01:31:40,0.42,10.07,0.00,14.47,20.42,24.01,6.22,32.42,1020.05,2061.68,1274.01,1577.32,1716.78,350.13,334.82,25.36,0000 0000 0000 0000 000000
2014-01-22 01:32:40,0.33,10.07,0.00,14.47,20.42,24.00,6.31,32.33,1020.04,2061.62,1273.63,1577.11,1716.33,349.91,335.01,25.36,0000 0000 0000 0000 000000
2014-01-22 01:33:40,0.53,10.08,0.00,14.46,20.42,24.01,6.25,32.38,1020.04,2061.60,1273.26,1577.04,1716.13,349.96,334.44,25.37,0000 0000 0000 0000 000000
2014-01-22 01:34:41,0.27,10.08,0.00,14.47,20.42,23.97,6.33,32.54,1020.04,2061.61,1273.09,1576.98,1716.04,349.63,334.35,25.37,0000 0000 0000 0000 000000
2014-01-22 01:35:41,0.25,10.08,0.00,14.47,20.42,23.97,6.33,32.46,1020.04,2061.68,1273.01,1576.59,1715.87,349.78,334.50,25.38,0000 0000 0000 0000 000000
2014-01-22 01:36:41,0.42,10.08,0.00,14.47,20.42,24.01,6.19,32.38,1020.04,2061.61,1272.66,1576.24,1715.43,349.58,334.30,25.38,0000 0000 0000 0000 000000
2014-01-22 01:37:42,0.55,10.08,0.00,14.47,20.42,24.02,6.26,32.46,1020.04,2061.40,1272.27,1576.08,1715.16,350.12,334.82,25.39,0000 0000 0000 0000 000000
2014-01-22 01:38:42,0.22,10.08,0.00,14.47,20.42,24.04,6.41,32.38,1020.04,2061.37,1272.10,1576.02,1715.04,350.24,334.93,25.40,0000 0000 0000 0000 000000
2014-01-22 01:39:42,0.16,10.09,0.00,14.46,20.43,24.02,6.29,32.29,1020.04,2061.41,1272.01,1575.85,1714.93,350.06,334.76,25.40,0000 0000 0000 0000 000000
2014-01-22 01:40:42,0.38,10.09,0.00,14.46,20.43,23.97,6.31,32.54,1020.04,2061.44,1271.63,1575.38,1714.49,350.27,335.06,25.41,0000 0000 0000 0000 000000
2014-01-22 01:41:43,0.63,10.09,0.00,14.48,20.43,23.98,6.24,32.42,1020.04,2061.38,1271.26,1575.14,1714.18,349.84,334.67,25.41,0000 0000 0000 0000 000000
2014-01-22 01:42:43,0.48,10.09,0.00,14.49,20.43,24.00,6.25,32.42,1020.04,2061.41,1271.09,1575.04,1714.06,349.81,334.48,25.42,0000 0000 0000 0000 000000
2014-01-22 01:43:43,0.21,10.10,0.00,14.49,20.43,23.98,6.23,32.63,1020.04,2061.42,1270.98,1574.97,1714.00,350.16,334.88,25.43,0000 0000 0000 0000 000000
2014-01-22 01:44:43,0.29,10.10,0.00,14.48,20.43,23.95,6.25,32.42,1020.04,2061.53,1270.59,1574.69,1713.64,350.13,334.63,25.43,0000 0000 0000 0000 000000
2014-01-22 01:45:44,0.69,10.10,0.00,14.48,20.43,23.96,6.25,32.79,1020.04,2061.54,1270.25,1574.27,1713.24,349.66,334.37,25.44,0000 0000 0000 0000 000000
2014-01-22 01:46:44,0.61,10.11,0.00,14.47,20.43,23.95,6.42,32.92,1020.04,2061.47,1270.08,1574.10,1713.08,350.54,335.21,25.44,0000 0000 0000 0000 000000
2014-01-22 01:47:44,0.22,10.11,0.00,14.47,20.43,23.96,6.27,32.88,1020.04,2061.29,1269.86,1574.02,1713.01,349.78,334.49,25.45,0000 0000 0000 0000 000000
2014-01-22 01:48:44,0.11,10.11,0.00,14.47,20.43,23.98,6.10,32.67,1020.04,2061.25,1269.42,1573.81,1712.67,349.82,334.70,25.46,0000 0000 0000 0000 000000
2014-01-22 01:49:45,0.53,10.11,0.00,14.47,20.43,24.03,6.40,32.54,1020.04,2061.46,1269.17,1573.43,1712.28,349.94,334.90,25.46,0000 0000 0000 0000 000000
2014-01-22 01:50:45,0.73,10.12,0.00,14.48,20.43,24.02,6.24,32.67,1020.04,2061.47,1269.06,1573.18,1712.10,350.29,334.54,25.47,0000 0000 0000 0000 000000
2014-01-22 01:51:45,0.28,10.12,0.00,14.49,20.44,23.98,6.11,32.50,1020.04,2061.45,1268.99,1573.06,1712.02,349.99,334.36,25.47,0000 0000 0000 0000 000000
2014-01-22 01:52:45,0.17,10.12,0.00,14.49,20.44,23.99,6.45,32.54,1020.04,2061.63,1268.67,1572.99,1711.81,350.32,334.73,25.48,0000 0000 0000 0000 000000
2014-01-22 01:53:45,0.61,10.12,0.00,14.49,20.44,24.01,6.26,32.42,1020.04,2061.75,1268.25,1572.85,1711.35,349.43,334.55,25.48,0000 0000 0000 0000 000000
2014-01-22 01:54:46,0.70,10.13,0.00,14.49,20.44,23.98,6.41,32.46,1020.04,2061.70,1268.08,1572.39,1711.13,350.37,335.32,25.49,0000 0000 0000 0000 000000
2014-01-22 01:55:46,0.42,10.13,0.00,14.50,20.44,24.01,6.36,32.54,1020.04,2061.69,1268.01,1572.14,1711.04,349.90,334.80,25.50,0000 0000 0000 0000 000000
2014-01-22 01:56:46,0.22,10.13,0.00,14.51,20.44,24.04,6.03,32.54,1020.04,2061.67,1267.68,1572.05,1710.86,349.14,333.82,25.50,0000 0000 0000 0000 000000
2014-01-22 01:57:46,0.40,10.13,0.00,14.50,20.44,23.97,6.28,32.58,1020.04,2061.71,1267.29,1571.99,1710.38,349.59,334.27,25.51,0000 0000 0000 0000 000000
2014-01-22 01:58:47,0.47,10.13,0.00,14.49,20.44,23.96,6.20,32.21,1020.04,2061.57,1267.10,1571.70,1710.13,349.71,334.40,25.51,0000 0000 0000 0000 000000
2014-01-22 01:59:47,0.31,10.14,0.00,14.49,20.44,23.98,6.18,32.38,1020.04,2061.50,1267.00,1571.32,1710.05,349.53,334.22,25.52,0000 0000 0000 0000 000000
2014-01-22 02:00:47,0.17,10.14,0.00,14.49,20.44,24.00,6.02,32.29,1020.04,2061.35,1266.61,1571.12,1709.99,348.87,333.59,25.53,0000 0000 0000 0000 000000
2014-01-22 02:01:47,0.29,10.14,0.00,14.49,20.44,23.99,6.44,32.42,1020.04,2061.34,1266.23,1571.04,1709.62,350.29,334.94,25.53,0000 0000 0000 0000 000000
2014-01-22 02:02:48,0.43,10.14,0.00,14.49,20.44,24.00,6.13,32.38,1020.04,2061.44,1266.08,1570.99,1709.25,349.67,334.35,25.54,0000 0000 0000 0000 000000
2014-01-22 02:03:48,0.35,10.14,0.00,14.49,20.44,24.02,6.21,32.33,1020.04,2061.41,1266.00,1570.77,1709.09,349.79,334.47,25.54,0000 0000 0000 0000 000000
2014-01-22 02:04:48,0.30,10.15,0.00,14.49,20.44,24.03,6.28,32.42,1020.03,2061.38,1265.71,1570.32,1709.02,349.53,334.21,25.55,0000 0000 0000 0000 000000
2014-01-22 02:05:48,0.44,10.15,0.00,14.49,20.44,24.00,6.39,32.38,1020.03,2061.38,1265.29,1570.12,1708.93,350.98,335.13,25.55,0000 0000 0000 0000 000000
2014-01-22 02:06:49,0.53,10.15,0.00,14.49,20.44,23.99,6.24,32.46,1020.03,2061.47,1265.10,1570.04,1708.59,349.19,333.90,25.56,0000 0000 0000 0000 000000
2014-01-22 02:07:49,0.36,10.15,0.00,14.49,20.44,23.99,6.31,32.38,1020.03,2061.43,1265.03,1570.00,1708.25,350.10,334.86,25.57,0000 0000 0000 0000 000000
2014-01-22 02:08:49,0.13,10.15,0.00,14.50,20.44,24.00,6.13,32.50,1020.03,2061.38,1264.88,1569.87,1708.09,349.94,334.67,25.57,0000 0000 0000 0000 000000
2014-01-22 02:09:50,0.26,10.16,0.00,14.51,20.44,24.02,6.34,32.42,1020.03,2061.27,1264.45,1569.44,1708.02,350.53,335.35,25.58,0000 0000 0000 0000 000000
2014-01-22 02:10:50,0.46,10.16,0.00,14.51,20.44,24.02,6.13,32.21,1020.03,2061.27,1264.17,1569.16,1707.87,349.46,334.40,25.58,0000 0000 0000 0000 000000
2014-01-22 02:11:50,0.45,10.16,0.00,14.51,20.44,24.05,6.30,32.29,1020.03,2061.20,1264.06,1569.06,1707.41,350.76,334.98,25.59,0000 0000 0000 0000 000000
2014-01-22 02:12:50,0.17,10.16,0.00,14.51,20.44,24.03,6.23,32.38,1020.03,2061.13,1263.96,1569.00,1707.16,350.29,334.57,25.60,0000 0000 0000 0000 000000
2014-01-22 02:13:51,0.13,10.16,0.00,14.50,20.44,24.02,6.23,32.29,1020.03,2061.15,1263.63,1568.73,1707.06,349.80,334.47,25.60,0000 0000 0000 0000 000000
2014-01-22 02:14:51,0.52,10.17,0.00,14.51,20.44,24.02,6.31,32.38,1020.03,2061.15,1263.25,1568.33,1706.92,349.87,334.53,25.61,0000 0000 0000 0000 000000
2014-01-22 02:15:51,0.54,10.17,0.00,14.50,20.44,24.01,6.28,32.46,1020.02,2061.19,1263.09,1568.13,1706.53,349.29,333.97,25.61,0000 0000 0000 0000 000000
2014-01-22 02:16:51,0.42,10.17,0.00,14.50,20.44,24.02,6.17,32.50,1019.97,2061.19,1263.02,1568.05,1706.21,349.97,334.62,25.62,0000 0000 0000 0000 000000
2014-01-22 02:17:51,0.22,10.17,0.00,14.50,20.44,24.02,6.27,32.29,1019.96,2061.15,1262.73,1567.97,1706.07,349.75,334.40,25.63,0000 0000 0000 0000 000000
2014-01-22 02:18:52,0.32,10.17,0.00,14.51,20.44,24.03,6.33,32.25,1019.94,2061.16,1262.29,1567.75,1706.00,350.24,334.85,25.63,0000 0000 0000 0000 000000
2014-01-22 02:19:52,0.47,10.18,0.00,14.52,20.44,24.05,6.19,32.25,1019.93,2061.19,1262.10,1567.35,1705.74,350.16,334.34,25.64,0000 0000 0000 0000 000000
2014-01-22 02:20:52,0.52,10.18,0.00,14.52,20.44,24.03,6.24,32.42,1019.87,2061.29,1262.02,1567.13,1705.32,350.52,335.02,25.64,0000 0000 0000 0000 000000
2014-01-22 02:21:52,0.49,10.18,0.00,14.52,20.44,24.03,6.22,32.42,1019.85,2061.34,1261.89,1567.04,1705.12,349.86,334.48,25.65,0000 0000 0000 0000 000000
2014-01-22 02:22:52,0.31,10.18,0.00,14.51,20.44,24.01,6.37,32.46,1019.71,2061.34,1261.44,1566.98,1705.04,350.18,334.71,25.65,0000 0000 0000 0000 000000
2014-01-22 02:23:52,0.37,10.19,0.00,14.51,20.44,23.95,6.35,32.58,1019.68,2061.34,1261.18,1566.84,1704.98,350.87,335.36,25.66,0000 0000 0000 0000 000000
2014-01-22 02:24:53,0.32,10.19,0.00,14.52,20.44,23.95,6.23,32.46,1019.63,2061.27,1261.06,1566.40,1704.65,348.86,333.42,25.67,0000 0000 0000 0000 000000
2014-01-22 02:25:53,0.40,10.19,0.00,14.50,20.44,24.01,6.31,32.46,1019.63,2061.19,1260.92,1566.15,1704.25,349.24,333.81,25.67,0000 0000 0000 0000 000000
2014-01-22 02:26:53,0.29,10.19,0.00,14.49,20.44,24.00,6.34,32.54,1019.63,2061.16,1260.47,1566.05,1704.10,349.67,333.81,25.68,0000 0000 0000 0000 000000
2014-01-22 02:27:53,0.35,10.20,0.00,14.50,20.44,23.99,6.29,32.42,1019.59,2061.18,1260.18,1566.01,1704.03,350.14,334.66,25.68,0000 0000 0000 0000 000000
2014-01-22 02:28:54,0.29,10.20,0.00,14.51,20.44,23.97,6.28,32.38,1019.58,2061.16,1260.06,1565.80,1703.95,349.84,334.36,25.69,0000 0000 0000 0000 000000
2014-01-22 02:29:54,0.26,10.20,0.00,14.51,20.44,24.00,6.29,32.54,1019.58,2061.10,1259.94,1565.36,1703.52,350.67,335.15,25.70,0000 0000 0000 0000 000000
2014-01-22 02:30:54,0.48,10.20,0.00,14.51,20.44,24.03,6.17,32.58,1019.56,2061.11,1259.54,1565.13,1703.19,349.59,334.46,25.70,0000 0000 0000 0000 000000
2014-01-22 02:31:54,0.54,10.20,0.00,14.52,20.44,24.05,6.30,32.58,1019.56,2061.10,1259.21,1565.05,1703.06,349.82,334.31,25.71,0000 0000 0000 0000 000000
2014-01-22 02:32:54,0.32,10.21,0.00,14.52,20.44,24.05,6.33,32.54,1019.58,2061.05,1259.07,1564.99,1703.00,349.55,334.50,25.71,0000 0000 0000 0000 000000
2014-01-22 02:33:55,0.10,10.21,0.00,14.52,20.44,24.04,6.34,32.58,1019.56,2061.03,1259.00,1564.82,1702.88,350.17,334.64,25.72,0000 0000 0000 0000 000000
2014-01-22 02:34:55,0.19,10.21,0.00,14.52,20.44,24.00,6.23,32.42,1019.56,2061.05,1258.63,1564.42,1702.47,349.90,334.40,25.72,0000 0000 0000 0000 000000